Simultaneous Nadir Overpasses (SNOs) Predictions

Prediction of SNOs between METOP-B and TERRA Satellite Orbit:

Table of predicted SNOs for the next 14.0 days since TLE Epoch: 7/2/2016
Index Date (METOP-B) Time (METOP-B) Lat,Lon (METOP-B) SZA (METOP-B ) Date (TERRA) Time (TERRA) Lat,Lon (TERRA) SZA (TERRA ) Distance(km) Time Diff (sec)
1 07/04/2016 14:49:49 81.27, 4.08 61.20 07/04/2016 14:50:00 81.27, 4.25 61.23 2.92 11
2 07/04/2016 15:40:28 -81.28, 172.00 118.72 07/04/2016 15:39:27 -81.27, 171.83 118.78 3.09 61
3 07/07/2016 10:24:13 81.27, 70.60 61.49 07/07/2016 10:24:14 81.27, 70.76 61.51 2.70 1
4 07/07/2016 11:14:52 -81.28,-121.44 118.43 07/07/2016 11:13:41 -81.27,-121.62 118.49 3.21 71
5 07/10/2016 05:07:58 -81.27, -30.59 118.23 07/10/2016 05:09:04 -81.26, -30.78 118.22 3.29 66
6 07/1
